User: anonymous   Login
Location: Plymouth
(43.7570°N, 71.6890°W)
Time: 02:20:29
(UTC-04:00)
Language:

Meteor 1-28 Rocket - Orbit

View from above orbital plane
View from above orbital plane
View from above satellite
View from above satellite

Ground track
Ground track

The orbit data is extracted from the following two-line orbital elements,

1 10114U 77057B   17081.91822304 +.00000514 +00000-0 +29445-4 0  9997
2 10114 097.1993 268.5586 0012401 259.7490 100.2346 15.16637384170278
Epoch (UTC): 22 March 2017 22:02:14
Eccentricity: 0.0012401
inclination: 97.1993°
perigee height: 507 km
apogee height: 524 km
right ascension of ascending node: 268.5586°
argument of perigee: 259.7490°
revolutions per day: 15.16637384
mean anomaly at epoch: 100.2346°
orbit number at epoch: 17027

The dashed part of the orbit path shows where the satellite is in the earth's shadow,  

DLR